Total_Precipitation_Accumulation
1.99 1.97 1.97 2.02 1.93 2.00 2.00 1.89 1.63 1.44 1.29 1.13 0.98 1.03 1.15 1.14 1.25 1.38 1.64 1.68 1.55 1.70 2.06 2.35 2.37 2.37 2.33 2.23 2.13 2.06 1.98 1.92 1.76 1.56 1.31 1.18 1.11 0.99 0.96 0.94 0.93 0.90 0.86
2.33 2.33 2.43 2.41 2.16 2.13 2.21 2.22 2.05 1.84 1.57 1.36 1.19 1.16 1.17 1.18 1.30 1.47 1.68 1.82 1.76 1.67 2.00 2.43 2.61 2.70 2.67 2.65 2.52 2.28 2.12 2.02 1.95 1.78 1.61 1.42 1.29 1.17 1.10 1.04 1.00 0.95 0.90
2.65 2.62 2.76 2.74 2.40 2.29 2.40 2.50 2.44 2.26 1.87 1.59 1.49 1.45 1.40 1.44 1.44 1.56 1.75 1.89 1.90 1.84 1.95 2.09 2.27 2.44 2.57 2.68 2.69 2.54 2.35 2.14 2.00 1.89 1.85 1.76 1.58 1.41 1.28 1.21 1.16 1.08 0.99
2.68 2.77 2.70 2.54 2.47 2.52 2.73 2.91 2.82 2.70 2.42 2.15 1.98 1.76 1.61 1.61 1.56 1.73 1.79 1.86 2.14 2.09 2.00 1.82 1.89 2.08 2.31 2.60 2.80 2.82 2.73 2.51 2.24 2.05 1.97 1.88 1.74 1.53 1.37 1.30 1.28 1.21 1.12
2.79 2.95 2.98 2.93 2.87 2.89 2.95 2.86 3.00 2.83 2.83 2.64 2.21 1.97 1.79 1.72 1.80 1.86 1.92 1.94 2.06 2.18 2.14 1.92 1.82 1.91 2.02 2.31 2.54 2.80 2.90 2.82 2.57 2.31 2.15 2.04 1.88 1.71 1.56 1.45 1.38 1.30 1.21
3.14 3.23 3.21 3.26 3.31 3.35 3.18 3.08 3.06 2.88 2.75 2.66 2.30 2.13 1.99 1.86 1.83 1.82 1.76 1.80 1.89 1.86 1.94 1.93 1.97 1.84 1.88 1.99 2.18 2.55 2.92 3.01 2.93 2.71 2.51 2.36 2.13 1.88 1.68 1.58 1.49 1.43 1.36
3.71 3.70 3.72 3.70 3.58 3.49 3.34 3.14 2.99 2.89 2.70 2.50 2.43 2.14 1.83 1.61 1.55 1.52 1.56 1.64 1.63 1.60 1.70 1.87 1.96 1.92 1.80 1.73 1.84 2.25 2.78 3.05 3.04 2.91 2.74 2.62 2.36 2.05 1.83 1.69 1.60 1.50 1.43
4.37 4.14 4.07 3.90 3.60 3.43 3.30 3.10 2.95 2.81 2.56 2.41 2.37 2.34 1.97 1.69 1.42 1.26 1.34 1.36 1.42 1.54 1.61 1.58 1.61 1.62 1.59 1.60 1.55 1.77 2.01 2.26 2.51 2.69 2.75 2.62 2.45 2.26 2.05 1.94 1.88 1.79 1.69
4.43 4.11 3.83 3.67 3.49 3.31 3.15 3.06 2.94 2.81 2.60 2.42 2.32 2.44 2.32 2.04 1.67 1.48 1.35 1.36 1.43 1.48 1.47 1.42 1.38 1.38 1.42 1.49 1.52 1.58 1.71 1.85 2.07 2.29 2.45 2.44 2.34 2.23 2.15 2.11 2.11 2.13 2.11
4.06 3.62 3.40 3.39 3.25 3.05 2.88 2.67 2.53 2.47 2.42 2.33 2.27 2.16 2.12 2.07 1.93 1.76 1.57 1.55 1.56 1.55 1.48 1.42 1.48 1.52 1.51 1.58 1.59 1.47 1.44 1.47 1.66 1.83 2.03 2.12 2.09 2.05 2.07 2.18 2.32 2.46 2.49
3.48 3.21 3.02 3.04 2.96 2.71 2.48 2.25 2.06 1.99 1.99 2.06 2.07 2.02 1.95 1.91 1.77 1.69 1.65 1.58 1.55 1.53 1.45 1.41 1.45 1.52 1.51 1.46 1.45 1.44 1.42 1.37 1.49 1.61 1.71 1.89 2.00 2.04 2.07 2.18 2.30 2.41 2.51
2.95 2.66 2.40 2.28 2.16 2.00 1.90 1.81 1.70 1.65 1.64 1.74 1.80 1.77 1.76 1.77 1.75 1.74 1.71 1.59 1.58 1.64 1.51 1.38 1.32 1.29 1.30 1.34 1.36 1.51 1.42 1.39 1.44 1.49 1.45 1.46 1.56 1.76 1.92 2.02 2.08 2.19 2.35
2.35 2.06 1.85 1.73 1.66 1.61 1.57 1.56 1.53 1.49 1.40 1.41 1.44 1.48 1.51 1.49 1.53 1.65 1.78 1.79 1.71 1.60 1.51 1.43 1.30 1.24 1.22 1.23 1.36 1.47 1.36 1.31 1.36 1.38 1.28 1.20 1.22 1.32 1.43 1.55 1.70 1.84 1.99
1.79 1.66 1.50 1.39 1.36 1.38 1.34 1.36 1.34 1.28 1.19 1.14 1.10 1.15 1.21 1.21 1.34 1.53 1.65 1.81 1.87 1.67 1.44 1.37 1.30 1.21 1.19 1.21 1.37 1.39 1.23 1.17 1.16 1.20 1.19 1.11 1.05 1.04 1.08 1.15 1.24 1.31 1.45
1.34 1.31 1.24 1.17 1.11 1.06 1.01 1.00 1.00 1.02 1.05 1.07 1.01 0.99 1.02 1.04 1.15 1.29 1.40 1.59 1.77 1.74 1.51 1.29 1.27 1.25 1.19 1.26 1.47 1.24 1.13 1.14 1.04 0.97 0.97 0.95 0.93 0.91 0.91 0.90 0.91 0.97 1.04
1.00 1.01 0.97 0.90 0.89 0.92 0.87 0.81 0.81 0.86 0.90 0.95 0.97 0.92 0.91 0.93 0.97 1.03 1.11 1.25 1.43 1.57 1.51 1.26 1.13 1.07 1.06 1.07 1.31 1.14 1.14 1.14 0.95 0.83 0.77 0.78 0.78 0.78 0.77 0.78 0.77 0.81 0.87
0.85 0.80 0.76 0.72 0.72 0.75 0.77 0.80 0.79 0.80 0.86 0.87 0.87 0.86 0.85 0.86 0.90 0.89 0.94 1.04 1.18 1.32 1.45 1.35 1.15 1.04 1.03 1.08 1.13 1.05 1.01 0.94 0.86 0.84 0.73 0.69 0.67 0.69 0.67 0.67 0.71 0.74 0.77
0.72 0.70 0.71 0.67 0.62 0.60 0.64 0.69 0.73 0.73 0.81 0.83 0.82 0.84 0.82 0.82 0.87 0.86 0.88 0.93 1.05 1.20 1.35 1.41 1.26 1.14 1.05 1.01 1.02 0.99 0.85 0.79 0.80 0.89 0.75 0.68 0.63 0.61 0.65 0.61 0.59 0.64 0.71
0.63 0.61 0.58 0.57 0.57 0.54 0.54 0.56 0.59 0.62 0.70 0.76 0.78 0.85 0.86 0.86 0.84 0.83 0.86 0.92 1.04 1.16 1.31 1.36 1.28 1.19 1.14 1.07 1.10 1.03 0.92 0.99 0.83 0.82 0.74 0.69 0.65 0.61 0.80 0.84 0.60 0.57 0.61
0.54 0.52 0.47 0.47 0.52 0.50 0.44 0.43 0.46 0.51 0.58 0.62 0.65 0.78 0.85 0.84 0.84 0.87 0.90 0.95 1.03 1.17 1.26 1.30 1.24 1.15 1.13 1.12 1.17 1.20 1.15 1.09 0.96 0.73 0.75 0.71 0.69 0.69 1.01 1.54 0.99 0.68 0.64
0.52 0.51 0.48 0.43 0.46 0.43 0.39 0.40 0.42 0.42 0.50 0.53 0.55 0.63 0.70 0.71 0.73 0.78 0.81 0.89 1.01 1.16 1.23 1.29 1.25 1.18 1.10 1.20 1.23 1.19 1.15 1.15 1.01 0.85 0.83 0.76 0.89 1.19 1.73 2.35 1.86 1.20 0.95
0.61 0.52 0.47 0.44 0.44 0.40 0.39 0.37 0.39 0.42 0.48 0.56 0.62 0.63 0.59 0.60 0.59 0.58 0.65 0.74 0.89 1.08 1.23 1.30 1.27 1.23 1.16 1.19 1.26 1.25 1.24 1.26 1.23 0.95 0.88 0.88 1.10 1.84 2.51 2.84 2.39 1.56 1.21
0.66 0.58 0.48 0.48 0.48 0.40 0.34 0.31 0.32 0.40 0.51 0.60 0.66 0.65 0.53 0.51 0.61 0.64 0.65 0.67 0.78 0.89 1.10 1.30 1.36 1.26 1.21 1.21 1.33 1.39 1.34 1.31 1.29 1.07 1.05 1.11 1.32 2.10 2.39 2.57 2.36 1.63 1.32
0.66 0.59 0.51 0.48 0.48 0.36 0.30 0.28 0.31 0.36 0.44 0.47 0.49 0.55 0.63 0.65 0.58 0.60 0.62 0.73 0.82 0.92 1.00 1.11 1.27 1.20 1.12 1.18 1.28 1.32 1.26 1.21 1.13 1.03 1.05 1.22 1.44 1.97 2.00 2.11 2.15 1.66 1.37
0.62 0.54 0.47 0.47 0.47 0.38 0.30 0.26 0.29 0.36 0.41 0.38 0.35 0.39 0.46 0.50 0.48 0.55 0.67 0.83 0.89 1.00 1.03 1.19 1.21 1.14 1.11 1.11 1.05 1.09 1.27 1.36 1.28 1.03 0.95 1.12 1.33 1.61 1.68 1.78 1.74 1.60 1.46
0.53 0.44 0.41 0.42 0.40 0.38 0.29 0.24 0.26 0.31 0.39 0.36 0.38 0.43 0.43 0.37 0.40 0.51 0.70 0.89 1.04 1.08 1.17 1.37 1.35 1.30 1.20 1.13 1.03 1.05 1.29 1.45 1.40 1.17 0.92 0.99 1.15 1.30 1.52 1.53 1.43 1.36 1.44